Hanamaulu, HI

8:03 PM HST on February 09, 2016 (GMT -1000)
Lihue

Weather History for PHLI - January, 2013

Change the Weather History Date:

Sunday, January 13, 2013

  Actual Average Record
Temperature  
Mean Temperature 73 °F 72 °F  
Max Temperature 77 °F 78 °F 83 °F (1992)
Min Temperature 68 °F 66 °F 54 °F (1954)
Degree Days  
Heating Degree Days 0 0  
Month to date heating degree days 0 0  
Since 1 July heating degree days 0 0  
Cooling Degree Days 8 7  
Month to date cooling degree days 105 91  
Year to date cooling degree days 105 91  
Growing Degree Days 22 (Base 50)    
Moisture  
Dew Point 67 °F    
Average Humidity 84    
Maximum Humidity 93    
Minimum Humidity 74    
Precipitation  
Precipitation 1.13 in 0.12 in 1.81 in (1967)
Month to date precipitation 1.90 1.67  
Year to date precipitation 1.90 1.67  
Snow  
Snow 0.00 in - - ()
Month to date snowfall 0.0  
Since 1 July snowfall 0.0  
Snow Depth 0.00 in    
Sea Level Pressure  
Sea Level Pressure 29.94 in    
Wind  
Wind Speed 6 mph (SSW)    
Max Wind Speed 15 mph    
Max Gust Speed 18 mph    
Visibility 8 miles    
Events Rain    
T = Trace of Precipitation, MM = Missing Value Source: NWS Daily Summary

Daily Weather History Graph

Daily Weather History Graph

Search for Another Location

Airport or City:

Trip Planner

Search our weather history database for the weather conditions in past years. The results will help you decide how hot, cold, wet, or windy it might be!

Date:

Astronomy

Jan. 13, 2013 Rise Set
Actual Time 7:18 AM HST 6:14 PM HST
Civil Twilight 6:54 AM HST 6:38 PM HST
Nautical Twilight 6:27 AM HST 7:05 PM HST
Astronomical Twilight 6:00 AM HST 7:32 PM HST
Moon 8:45 AM HST (1/13) 8:40 PM HST (1/13)
Length of Visible Light 11h 43m
Length of Day
10h 55m
Waxing Crescent, 6% of the Moon is Illuminated
Jan 13
Waxing Crescent
Jan 18
First Quarter
Jan 26
Full
Feb 3
Last Quarter
Feb 9
New

Hourly Weather History & Observations

Time (HST) Temp. Dew Point Humidity Pressure Visibility Wind Dir Wind Speed Gust Speed Precip Events Conditions
12:53 AM 68.0 °F 64.0 °F 87% 29.94 in 10.0 mi West 4.6 mph - N/A   Partly Cloudy
1:09 AM 69.8 °F 64.4 °F 83% 29.95 in 10.0 mi Calm Calm - N/A   Mostly Cloudy
1:20 AM 68.0 °F 64.4 °F 88% 29.95 in 10.0 mi WSW 4.6 mph - N/A   Mostly Cloudy
1:53 AM 68.0 °F 64.9 °F 90% 29.94 in 10.0 mi West 4.6 mph - N/A   Scattered Clouds
2:15 AM 68.0 °F 64.4 °F 88% 29.94 in 10.0 mi West 5.8 mph - N/A   Mostly Cloudy
2:53 AM 69.1 °F 64.9 °F 87% 29.94 in 10.0 mi Calm Calm - N/A   Mostly Cloudy
3:35 AM 68.0 °F 64.4 °F 88% 29.93 in 10.0 mi West 3.5 mph - N/A   Scattered Clouds
3:48 AM 69.8 °F 64.4 °F 83% 29.94 in 10.0 mi Calm Calm - N/A   Mostly Cloudy
3:53 AM 69.1 °F 64.9 °F 87% 29.93 in 10.0 mi SW 3.5 mph - N/A   Mostly Cloudy
4:06 AM 69.8 °F 64.4 °F 83% 29.94 in 10.0 mi Calm Calm - N/A   Mostly Cloudy
4:15 AM 71.6 °F 66.2 °F 83% 29.94 in 10.0 mi South 8.1 mph - N/A   Scattered Clouds
4:53 AM 72.0 °F 66.9 °F 84% 29.93 in 10.0 mi South 5.8 mph - N/A   Mostly Cloudy
5:11 AM 71.6 °F 66.2 °F 83% 29.94 in 10.0 mi South 6.9 mph - N/A   Mostly Cloudy
5:18 AM 71.6 °F 66.2 °F 83% 29.94 in 10.0 mi South 5.8 mph - N/A   Mostly Cloudy
5:32 AM 71.6 °F 66.2 °F 83% 29.94 in 10.0 mi South 6.9 mph - N/A   Mostly Cloudy
5:53 AM 72.0 °F 66.0 °F 81% 29.94 in 10.0 mi South 8.1 mph - N/A   Mostly Cloudy
6:05 AM 71.6 °F 66.2 °F 83% 29.94 in 10.0 mi South 8.1 mph - N/A   Scattered Clouds
6:53 AM 72.0 °F 66.0 °F 81% 29.94 in 10.0 mi South 8.1 mph - N/A   Partly Cloudy
7:05 AM 71.6 °F 66.2 °F 83% 29.95 in 10.0 mi South 8.1 mph - N/A   Partly Cloudy
7:53 AM 73.0 °F 66.0 °F 79% 29.95 in 10.0 mi South 8.1 mph - N/A   Scattered Clouds
8:20 AM 73.4 °F 66.2 °F 78% 29.97 in 10.0 mi South 8.1 mph - N/A   Scattered Clouds
8:30 AM 73.4 °F 66.2 °F 78% 29.97 in 10.0 mi South 5.8 mph - N/A   Mostly Cloudy
8:50 AM 75.2 °F 66.2 °F 73% 29.97 in 10.0 mi South 8.1 mph - N/A   Scattered Clouds
8:53 AM 75.0 °F 68.0 °F 79% 29.97 in 10.0 mi South 6.9 mph - N/A   Partly Cloudy
9:53 AM 75.9 °F 68.0 °F 76% 29.97 in 10.0 mi South 11.5 mph - N/A   Partly Cloudy
10:53 AM 75.0 °F 66.9 °F 76% 29.96 in 10.0 mi South 10.4 mph - N/A   Mostly Cloudy
11:39 AM 73.4 °F 68.0 °F 83% 29.95 in 2.5 mi South 11.5 mph - 0.07 in Rain Heavy Rain
11:53 AM 73.9 °F 69.1 °F 85% 29.94 in 2.0 mi SSW 6.9 mph - 0.27 in Rain Light Rain
12:00 PM 73.4 °F 69.8 °F 88% 29.95 in 10.0 mi South 9.2 mph - 0.00 in   Overcast
12:35 PM 73.4 °F 68.0 °F 83% 29.94 in 7.0 mi South 10.4 mph - 0.00 in Rain Rain
12:42 PM 73.4 °F 68.0 °F 83% 29.94 in 1.8 mi SSW 9.2 mph - 0.03 in Rain Heavy Rain
12:50 PM 73.4 °F 68.0 °F 83% 29.93 in 3.0 mi South 9.2 mph - 0.07 in Rain Light Rain
12:53 PM 73.9 °F 69.1 °F 85% 29.93 in 10.0 mi South 6.9 mph - 0.07 in Rain Light Rain
1:53 PM 75.0 °F 68.0 °F 79% 29.92 in 10.0 mi South 8.1 mph - 0.00 in   Mostly Cloudy
2:42 PM 73.4 °F 64.4 °F 73% 29.93 in 6.0 mi SW 5.8 mph - 0.00 in Rain Light Rain
2:47 PM 71.6 °F 64.4 °F 78% 29.93 in 3.0 mi SSW 5.8 mph - 0.01 in Rain Rain
2:53 PM 71.1 °F 64.9 °F 81% 29.93 in 2.0 mi SSW 3.5 mph - 0.03 in Rain Heavy Rain
2:58 PM 71.6 °F 64.4 °F 78% 29.93 in 2.0 mi WSW 3.5 mph - 0.02 in Rain Heavy Rain
3:18 PM 71.6 °F 66.2 °F 83% 29.93 in 5.0 mi West 4.6 mph - 0.04 in Rain Light Rain
3:27 PM 71.6 °F 68.0 °F 88% 29.93 in 9.0 mi NW 4.6 mph - 0.04 in   Overcast
3:53 PM 71.1 °F 68.0 °F 90% 29.93 in 3.0 mi South 3.5 mph - 0.04 in Rain Rain
3:57 PM 71.6 °F 68.0 °F 88% 29.94 in 1.5 mi SSW 4.6 mph - 0.02 in Rain Heavy Rain
4:16 PM 71.6 °F 66.2 °F 83% 29.95 in 1.0 mi South 8.1 mph - 0.22 in Rain Heavy Rain
4:33 PM 69.8 °F 68.0 °F 94% 29.94 in 2.5 mi South 3.5 mph - 0.32 in Rain Rain
4:42 PM 71.6 °F 68.0 °F 88% 29.94 in 3.0 mi SE 8.1 mph - 0.34 in Rain Rain
4:49 PM 71.6 °F 68.0 °F 88% 29.94 in 6.0 mi SE 8.1 mph - 0.34 in Rain Light Rain
4:53 PM 71.1 °F 69.1 °F 93% 29.94 in 8.0 mi SE 9.2 mph - 0.34 in Rain Light Rain
5:05 PM 71.6 °F 69.8 °F 94% 29.94 in 4.0 mi South 10.4 mph - 0.01 in Rain Light Rain
5:14 PM 71.6 °F 68.0 °F 88% 29.94 in 10.0 mi South 8.1 mph - 0.01 in Rain Light Rain
5:23 PM 71.6 °F 68.0 °F 88% 29.94 in 10.0 mi South 6.9 mph - 0.01 in   Overcast
5:53 PM 71.1 °F 69.1 °F 93% 29.94 in 8.0 mi SSW 4.6 mph - 0.02 in Rain Light Rain
6:03 PM 71.6 °F 69.8 °F 94% 29.94 in 8.0 mi Calm Calm - 0.00 in Rain Light Rain
6:25 PM 71.6 °F 69.8 °F 94% 29.95 in 10.0 mi Calm Calm - 0.00 in Rain Light Rain
6:53 PM 71.1 °F 68.0 °F 90% 29.95 in 7.0 mi SW 3.5 mph - 0.02 in Rain Rain
7:10 PM 71.6 °F 68.0 °F 88% 29.96 in 6.0 mi Calm Calm - 0.00 in Rain Light Rain
7:17 PM 71.6 °F 68.0 °F 88% 29.96 in 10.0 mi SSE 5.8 mph - 0.00 in   Overcast
7:32 PM 71.6 °F 68.0 °F 88% 29.95 in 10.0 mi SSE 3.5 mph - 0.01 in   Overcast
7:53 PM 72.0 °F 69.1 °F 91% 29.96 in 5.0 mi SE 5.8 mph - 0.02 in Rain Rain
8:24 PM 71.6 °F 69.8 °F 94% 29.96 in 4.0 mi Calm Calm - 0.07 in Rain Light Rain
8:41 PM 71.6 °F 69.8 °F 94% 29.96 in 4.0 mi SSE 4.6 mph - 0.11 in Rain Rain
8:53 PM 72.0 °F 69.1 °F 91% 29.96 in 4.0 mi West 3.5 mph - 0.16 in Rain Rain
9:01 PM 71.6 °F 68.0 °F 88% 29.96 in 2.0 mi West 5.8 mph - 0.06 in Rain Heavy Rain
9:11 PM 71.6 °F 68.0 °F 88% 29.96 in 3.0 mi WNW 4.6 mph - 0.14 in Rain Rain
9:21 PM 71.6 °F 68.0 °F 88% 29.96 in 10.0 mi WNW 5.8 mph - 0.14 in Rain Light Rain
9:53 PM 71.1 °F 68.0 °F 90% 29.95 in 10.0 mi WSW 4.6 mph - 0.14 in Rain Light Rain
10:53 PM - - N/A% 29.94 in 10.0 mi WSW 5.8 mph - 0.01 in   Overcast
11:25 PM - - N/A% 29.94 in 10.0 mi WSW 10.4 mph - N/A   Overcast
11:50 PM - - N/A% 29.94 in 5.0 mi SW 8.1 mph - 0.01 in Rain Light Rain
11:53 PM 69.8 °F 68.0 °F 94% 29.93 in 5.0 mi SW 5.8 mph - 0.01 in Rain Light Rain